Wind_Speed
31 32 32 34 35 36 36 34 33 32 30 30 29 28 27 26 25 25 22 21 20 20 19 18 17 16 15 14 14 13 12 12 12 12 11 11 11 10 10 10 10 10 10 10 10 10 11 11 11
31 32 33 35 36 36 36 36 35 34 32 31 31 30 29 28 27 26 24 23 22 21 20 19 19 18 17 16 15 15 14 14 13 13 13 13 13 12 12 12 12 12 12 12 12 12 13 13 13
31 32 32 34 36 36 36 37 36 36 34 33 33 32 31 30 29 27 25 24 23 22 22 21 20 19 18 17 17 16 16 15 15 15 15 15 15 14 14 14 14 14 14 15 15 15 15 15 15
30 31 32 32 33 34 36 37 36 37 36 35 35 34 33 31 30 29 27 26 25 24 23 22 21 21 20 19 19 18 18 17 16 16 17 17 16 16 16 16 16 16 16 17 17 17 17 17 17
28 30 31 32 32 33 36 37 37 37 37 37 36 35 33 32 31 30 29 28 26 26 25 24 23 22 22 21 20 20 19 19 18 18 18 18 18 18 18 18 18 18 18 18 18 18 18 18 18
27 28 30 30 30 33 35 35 36 37 36 37 37 36 34 33 32 31 30 29 28 27 27 26 25 24 23 22 21 21 20 20 20 19 19 19 19 19 19 20 20 20 20 20 20 20 19 19 19
25 26 28 29 29 32 34 35 35 36 36 36 37 37 35 34 32 32 31 30 30 29 28 27 26 26 25 24 22 22 21 21 21 20 20 20 20 21 21 21 21 21 21 21 21 21 20 20 20
23 23 26 27 28 30 32 34 35 35 35 35 36 37 36 34 33 32 32 31 30 30 29 28 27 26 25 25 24 23 22 22 21 21 20 20 20 20 21 22 22 22 22 22 21 21 21 21 21
20 22 23 25 26 27 29 32 33 35 35 35 35 35 35 35 34 33 33 32 31 30 30 29 29 28 27 26 26 25 24 24 23 22 22 21 21 21 22 22 22 23 23 23 23 22 22 22 23
19 20 21 22 22 24 27 29 31 33 34 34 34 34 34 35 34 34 34 33 32 31 31 31 30 29 28 28 28 27 26 25 25 24 24 23 23 24 24 24 24 24 24 24 24 24 24 24 24
16 18 19 20 21 22 24 26 29 31 33 33 33 33 34 35 36 35 35 34 33 32 31 31 31 30 30 29 29 29 28 27 26 25 25 25 25 25 25 25 26 25 25 25 25 25 26 26 26
15 16 17 18 19 20 22 23 24 27 29 30 31 32 33 34 36 35 35 35 34 34 32 32 32 32 31 30 30 30 29 28 28 27 27 27 27 27 26 27 27 26 26 26 25 26 27 27 27
14 14 15 16 17 19 20 21 22 24 26 28 29 30 31 32 34 35 35 35 35 35 34 33 33 33 33 32 31 31 31 30 30 30 29 28 28 28 28 28 28 27 27 26 26 26 27 27 28
13 13 14 14 15 17 19 20 21 23 25 27 28 30 31 31 33 35 35 36 36 35 35 33 33 34 34 34 33 32 32 31 31 31 31 30 29 30 30 29 28 28 27 27 27 27 27 28 28
12 13 13 14 14 15 18 20 22 23 23 25 27 29 32 32 33 33 34 36 36 35 35 34 34 34 34 34 34 33 32 32 32 32 33 33 32 31 30 30 29 28 28 28 28 28 29 29 29
12 12 13 14 15 15 16 18 20 22 23 25 26 27 30 31 32 33 32 34 34 34 34 34 34 35 35 35 35 34 33 34 34 34 34 34 33 32 31 30 30 30 30 30 30 30 31 31 31
12 12 13 14 15 14 16 17 19 20 22 24 26 27 29 31 31 32 33 33 33 34 34 34 34 34 35 35 35 35 34 35 35 35 34 33 34 33 33 32 32 32 32 32 32 33 33 32 32
12 12 13 14 15 15 15 16 18 19 21 23 26 28 29 29 30 31 32 33 33 34 34 34 34 35 35 35 36 36 36 35 35 34 34 33 33 33 32 33 32 32 33 33 34 34 34 34 34
12 12 13 13 15 15 16 17 17 19 20 22 24 26 29 29 29 29 30 32 32 33 34 34 34 34 34 35 36 35 35 34 34 33 34 34 33 33 33 33 33 33 34 34 35 35 35 35 35
12 13 12 13 13 15 16 17 18 19 20 21 23 24 27 28 28 29 29 29 30 31 32 34 33 33 34 35 36 36 35 34 34 35 34 35 35 35 34 34 34 34 35 35 36 36 36 36 37
12 13 13 13 14 15 16 17 19 20 20 21 22 24 25 26 27 28 28 28 29 30 31 32 32 32 33 34 36 36 36 36 35 35 35 36 36 36 36 35 36 36 36 37 37 37 37 37 38
13 13 13 13 14 14 16 17 17 19 20 21 22 24 24 25 26 27 27 28 29 30 31 32 32 33 34 35 36 37 37 38 37 37 37 37 38 38 38 37 37 37 37 38 38 39 39 39 40
12 13 13 13 13 13 14 16 16 17 20 21 22 24 25 25 26 26 27 28 29 30 31 32 32 32 33 34 35 36 37 38 38 39 39 39 38 39 39 38 38 38 38 39 39 40 40 41 42
13 13 13 13 13 13 12 14 15 16 18 20 21 23 24 25 25 26 27 28 29 29 30 31 32 32 33 34 35 36 37 38 38 39 39 39 39 39 39 39 39 39 40 40 41 42 42 43 43
13 13 13 13 13 13 13 14 15 15 17 18 19 21 23 24 24 25 25 26 27 28 29 30 31 32 33 33 34 35 36 37 37 38 39 39 39 39 39 40 40 40 41 42 43 43 43 44 44
14 14 14 15 15 15 14 15 15 15 16 18 19 20 21 22 23 24 24 25 26 27 28 30 31 31 32 33 34 35 36 36 36 37 38 39 40 40 41 42 42 42 43 43 43 44 44 44 45
16 16 16 16 17 17 16 15 15 15 16 18 19 21 21 23 23 24 25 25 26 28 29 30 31 32 32 33 34 35 35 35 36 36 37 38 39 41 42 43 43 44 44 44 44 44 44 45 46
17 17 17 18 19 18 17 16 16 16 17 18 20 21 23 23 24 25 26 27 28 29 29 30 31 32 32 33 33 34 35 35 36 36 37 38 39 41 42 43 44 45 45 45 45 45 46 47 47
18 18 18 18 19 20 19 17 17 17 18 19 20 22 23 24 25 27 28 29 30 31 31 31 31 31 32 33 34 35 36 36 37 38 39 39 39 40 42 44 45 46 46 46 46 46 48 48 48
20 19 19 20 20 20 20 18 18 19 19 20 21 22 24 25 26 27 29 30 30 31 31 31 32 32 33 34 35 36 37 37 37 38 38 39 39 41 42 43 45 46 47 47 47 47 48 48 47
Wind_Direction
251 249 247 244 242 240 240 240 240 239 237 236 235 234 233 234 233 235 236 234 233 233 232 233 233 234 236 238 239 239 242 246 247 247 249 251 252 253 254 256 259 260 263 266 269 271 274 275 274
252 250 247 245 242 241 240 239 239 238 237 236 235 234 233 233 233 233 234 233 232 233 233 234 236 237 238 240 242 242 244 248 250 249 250 253 255 256 257 259 261 263 264 266 269 271 273 274 274
253 250 247 245 242 241 241 239 238 237 237 236 235 234 233 232 232 232 232 232 232 233 234 235 237 238 240 242 244 244 246 248 251 251 252 253 256 257 258 260 263 265 267 268 269 270 272 273 273
253 248 247 246 243 240 240 239 237 236 236 236 235 234 233 232 232 232 232 232 232 233 234 236 238 240 242 245 246 246 248 250 252 254 255 255 257 259 260 262 264 265 267 268 269 270 272 272 272
253 247 246 245 242 240 238 238 237 236 235 235 235 234 234 232 232 232 231 232 233 234 235 238 239 241 243 246 247 247 249 251 253 255 256 256 257 259 261 263 265 266 267 268 270 270 271 271 270
254 249 246 245 242 238 238 238 239 237 235 235 234 233 233 232 232 232 232 232 233 234 236 238 239 241 243 245 247 248 250 252 253 255 257 258 258 260 262 264 265 266 267 268 270 271 270 270 269
256 251 247 244 243 239 238 239 239 237 235 234 234 234 233 231 231 232 232 232 233 234 236 238 239 241 242 244 246 248 249 252 254 255 257 258 260 262 263 264 265 267 268 269 269 269 269 268 268
256 253 249 246 245 242 240 239 239 237 235 235 234 233 232 231 230 231 231 233 235 234 234 235 237 240 243 244 245 248 250 252 254 255 256 259 260 263 266 266 267 268 269 269 269 269 268 267 268
256 254 251 248 247 241 240 240 239 238 236 234 234 234 232 230 229 230 231 232 234 234 234 236 237 240 243 245 246 247 250 252 254 256 257 259 260 264 266 268 269 268 267 267 268 268 268 268 269
256 254 254 250 248 243 242 241 238 237 235 234 233 233 231 229 228 229 231 232 233 233 234 236 237 240 243 245 246 247 249 252 254 256 258 261 262 265 266 267 269 270 269 268 267 268 269 269 270
258 256 254 251 250 248 245 242 238 237 235 233 233 232 230 229 228 229 230 231 233 233 234 235 238 241 244 246 247 248 250 252 255 256 260 263 264 265 267 268 270 271 270 269 268 268 269 270 271
262 259 256 253 253 253 250 244 238 237 235 232 232 230 229 229 228 229 231 231 233 234 235 235 237 240 243 246 248 250 251 252 255 257 260 263 265 266 266 268 269 270 270 269 268 268 269 270 271
267 261 259 259 260 256 249 244 240 237 235 234 232 231 230 230 230 230 231 233 234 235 236 237 239 241 244 246 249 252 252 253 256 258 260 262 264 265 267 268 268 268 268 268 268 269 270 270 270
270 264 261 262 263 257 251 245 240 236 237 236 232 230 230 231 231 230 231 233 235 235 238 239 241 243 244 246 249 251 253 254 256 259 260 262 263 265 266 266 266 267 267 268 269 270 271 272 272
273 267 262 263 263 257 251 244 240 238 237 235 233 229 227 230 231 231 232 233 234 236 237 240 241 242 244 246 248 250 253 254 256 258 259 260 261 262 264 264 264 265 266 267 268 270 272 273 274
275 269 264 263 263 258 250 242 240 240 237 234 232 230 230 230 232 233 234 234 236 238 238 239 241 242 245 247 250 251 254 256 257 258 259 260 260 260 263 264 264 265 265 267 269 271 272 273 274
278 273 268 265 264 258 251 247 243 240 237 235 234 233 231 230 232 233 235 236 237 238 239 239 239 242 245 247 251 253 255 257 258 258 259 259 259 260 261 264 265 265 266 268 270 271 273 273 274
284 278 273 270 264 260 255 252 248 246 241 236 236 234 233 233 233 234 234 236 238 238 239 241 242 245 247 248 251 253 254 257 258 258 258 259 259 259 261 263 266 266 267 269 270 271 273 274 274
287 284 277 273 267 261 257 253 246 248 245 239 236 233 233 234 235 236 237 238 238 238 240 243 245 247 247 249 250 252 254 255 257 258 259 259 260 261 262 263 265 266 267 269 270 271 272 273 274
290 287 281 274 269 262 259 253 247 245 245 243 239 236 235 235 237 239 242 240 240 241 241 242 245 248 250 250 251 253 256 258 259 259 260 261 262 264 265 265 264 267 268 269 270 271 272 273 274
294 288 282 280 274 263 260 256 251 248 247 244 240 239 238 240 239 238 240 241 241 242 244 246 249 251 253 253 253 255 258 260 261 261 261 262 264 265 266 265 265 268 269 270 271 272 272 273 274
299 293 288 284 280 267 261 257 252 250 247 244 241 240 239 242 243 242 242 244 244 246 248 250 252 254 256 256 256 257 259 260 261 262 262 262 264 265 266 266 267 268 270 270 271 272 273 274 275
306 301 297 291 285 274 266 262 255 251 247 245 243 241 240 241 243 245 245 245 247 249 250 252 254 256 257 256 257 258 259 260 261 261 262 263 264 265 265 266 268 269 269 270 271 272 274 274 276
308 304 299 294 288 280 273 268 262 256 251 248 244 241 240 240 243 246 248 248 249 251 252 253 255 257 258 258 259 260 262 262 263 263 262 263 265 266 267 268 269 269 271 272 272 273 274 274 276
307 304 301 297 291 288 281 274 270 263 255 251 248 244 242 242 244 247 250 251 251 253 254 256 258 259 259 259 261 262 263 264 264 264 264 264 265 266 269 269 270 271 272 273 273 273 274 275 275
307 305 301 298 295 293 287 279 275 269 260 253 250 248 247 247 249 251 253 253 253 255 257 258 260 261 261 261 263 264 265 265 265 265 265 265 265 267 268 270 270 272 273 274 274 274 274 275 275
304 301 299 296 296 295 290 282 275 270 262 256 253 251 250 251 252 254 256 257 258 259 261 261 263 264 264 264 265 266 266 267 267 267 267 267 266 267 268 270 271 272 273 273 274 275 275 275 276
299 299 295 294 294 294 291 286 278 271 266 258 254 254 253 253 255 257 259 261 262 263 264 265 266 267 266 266 266 267 268 269 269 269 270 270 270 270 270 271 273 273 274 276 276 276 275 276 276
298 296 295 291 290 291 290 287 280 274 268 262 258 255 255 256 258 259 260 261 263 265 266 267 268 268 268 269 269 269 270 270 271 271 272 272 273 272 272 272 273 274 275 276 277 277 276 277 277
294 293 292 290 287 287 287 287 282 277 271 266 263 261 260 259 261 262 263 263 265 266 267 268 269 270 271 271 271 271 272 272 273 273 273 274 274 274 274 274 275 276 276 276 276 277 278 277 277
Height
5810 5812 5814 5816 5818 5820 5823 5826 5829 5833 5835 5838 5840 5843 5846 5848 5851 5854 5855 5855 5856 5858 5859 5860 5861 5862 5863 5864 5865 5865 5866 5867 5867 5867 5868 5868 5868 5868 5868 5868 5868 5868 5868 5868 5868 5868 5868 5868 5868
5802 5804 5806 5807 5809 5812 5816 5819 5822 5826 5829 5831 5834 5837 5840 5842 5845 5847 5849 5851 5853 5854 5855 5857 5858 5859 5860 5861 5862 5863 5863 5864 5865 5865 5865 5865 5866 5866 5866 5866 5866 5866 5866 5866 5866 5866 5865 5865 5865
5794 5796 5797 5798 5801 5805 5809 5811 5815 5818 5821 5824 5827 5830 5833 5837 5839 5842 5844 5846 5848 5850 5852 5853 5855 5856 5857 5858 5859 5860 5861 5861 5862 5862 5862 5862 5863 5863 5863 5863 5863 5863 5863 5863 5863 5863 5862 5862 5862
5786 5787 5788 5790 5793 5798 5800 5803 5806 5810 5813 5816 5820 5823 5827 5831 5834 5837 5840 5842 5844 5846 5847 5849 5851 5852 5853 5854 5856 5856 5857 5858 5858 5859 5859 5859 5859 5860 5860 5860 5860 5860 5860 5860 5860 5859 5859 5859 5859
5777 5779 5780 5782 5786 5789 5791 5794 5798 5801 5805 5808 5812 5816 5820 5824 5828 5831 5834 5837 5839 5841 5843 5845 5846 5848 5849 5850 5851 5852 5853 5854 5854 5855 5855 5856 5856 5856 5856 5856 5856 5856 5856 5856 5856 5855 5855 5855 5855
5771 5771 5773 5775 5778 5781 5784 5786 5789 5793 5796 5800 5804 5808 5813 5817 5821 5825 5828 5831 5834 5836 5838 5840 5842 5843 5845 5846 5847 5848 5849 5850 5850 5851 5851 5851 5852 5852 5852 5852 5852 5852 5852 5852 5851 5851 5851 5851 5850
5764 5765 5766 5769 5771 5774 5776 5779 5782 5785 5789 5792 5796 5801 5806 5810 5815 5818 5822 5825 5828 5830 5833 5835 5837 5838 5840 5841 5843 5844 5845 5845 5846 5846 5847 5847 5848 5848 5847 5847 5848 5848 5848 5847 5847 5847 5846 5846 5846
5757 5759 5760 5762 5764 5767 5769 5771 5774 5777 5781 5785 5788 5793 5799 5803 5808 5812 5816 5819 5821 5824 5827 5829 5831 5833 5834 5836 5838 5839 5840 5841 5841 5842 5842 5843 5843 5843 5843 5843 5843 5843 5843 5843 5842 5842 5842 5842 5841
5753 5754 5754 5756 5757 5759 5761 5764 5767 5770 5774 5777 5781 5786 5791 5796 5801 5805 5809 5812 5815 5818 5821 5823 5826 5827 5829 5831 5832 5834 5835 5836 5836 5837 5838 5838 5838 5838 5838 5838 5838 5838 5838 5837 5837 5837 5837 5837 5836
5748 5749 5750 5751 5751 5753 5754 5756 5759 5763 5767 5771 5775 5779 5783 5788 5793 5798 5802 5805 5809 5812 5815 5817 5820 5822 5824 5825 5827 5828 5830 5831 5832 5832 5833 5833 5833 5833 5833 5833 5833 5833 5832 5832 5832 5832 5832 5831 5831
5744 5745 5745 5745 5746 5747 5748 5750 5752 5756 5760 5764 5768 5772 5777 5781 5786 5790 5795 5799 5802 5805 5808 5811 5814 5816 5817 5819 5821 5822 5824 5825 5826 5827 5827 5828 5828 5828 5828 5828 5828 5827 5827 5827 5826 5826 5826 5825 5825
5741 5741 5741 5741 5741 5741 5743 5745 5747 5750 5754 5757 5761 5765 5770 5774 5779 5783 5787 5792 5795 5799 5802 5804 5807 5809 5811 5813 5815 5816 5817 5819 5820 5821 5822 5822 5822 5822 5822 5822 5822 5821 5821 5821 5820 5820 5820 5819 5819
5738 5738 5737 5737 5737 5737 5738 5740 5742 5745 5748 5751 5755 5759 5763 5767 5772 5776 5781 5785 5789 5792 5795 5797 5800 5802 5805 5806 5808 5810 5811 5813 5814 5815 5815 5815 5816 5816 5816 5816 5815 5815 5815 5815 5815 5814 5813 5813 5812
5735 5735 5734 5734 5734 5734 5735 5736 5738 5741 5743 5747 5750 5753 5757 5761 5765 5770 5774 5778 5781 5785 5788 5791 5793 5795 5798 5800 5802 5803 5805 5806 5807 5808 5809 5809 5809 5809 5809 5809 5809 5809 5809 5808 5808 5808 5807 5806 5806
5732 5732 5732 5731 5731 5731 5731 5733 5735 5737 5739 5742 5745 5747 5751 5755 5759 5763 5766 5770 5774 5777 5780 5783 5786 5788 5791 5793 5795 5796 5797 5799 5800 5800 5801 5802 5802 5802 5802 5802 5802 5802 5802 5802 5802 5801 5800 5800 5799
5729 5729 5729 5729 5728 5728 5730 5731 5731 5732 5735 5737 5740 5743 5746 5749 5753 5756 5760 5763 5767 5770 5773 5776 5778 5781 5784 5786 5787 5789 5790 5791 5792 5793 5793 5794 5794 5795 5795 5795 5795 5795 5795 5795 5795 5794 5793 5792 5791
5727 5727 5726 5726 5725 5725 5726 5727 5728 5728 5730 5733 5735 5737 5740 5743 5747 5750 5754 5757 5760 5763 5766 5768 5771 5774 5776 5779 5780 5782 5783 5784 5784 5785 5785 5785 5786 5786 5787 5787 5787 5787 5787 5787 5787 5786 5786 5785 5784
5725 5724 5723 5723 5722 5722 5722 5723 5724 5725 5726 5729 5730 5732 5735 5738 5741 5745 5748 5751 5754 5756 5759 5762 5764 5767 5769 5771 5773 5774 5775 5776 5777 5777 5778 5778 5778 5779 5779 5779 5779 5779 5780 5779 5779 5778 5778 5777 5776
5722 5721 5721 5720 5719 5719 5719 5720 5721 5722 5723 5724 5726 5728 5731 5733 5736 5739 5742 5745 5748 5750 5752 5755 5758 5760 5762 5763 5765 5766 5768 5769 5769 5770 5770 5771 5771 5771 5771 5771 5771 5771 5771 5771 5771 5770 5769 5768 5767
5720 5719 5718 5717 5716 5716 5716 5717 5718 5719 5720 5721 5722 5724 5726 5729 5732 5734 5737 5740 5742 5744 5746 5749 5751 5753 5754 5756 5757 5759 5760 5760 5761 5762 5762 5763 5763 5763 5763 5763 5763 5763 5763 5762 5762 5761 5760 5759 5758
5718 5716 5715 5714 5714 5713 5713 5714 5715 5715 5716 5717 5718 5719 5721 5724 5727 5729 5731 5734 5736 5738 5740 5742 5744 5746 5747 5748 5749 5750 5752 5752 5753 5753 5754 5755 5755 5754 5754 5754 5754 5754 5754 5753 5753 5752 5751 5750 5749
5716 5714 5713 5711 5711 5710 5711 5710 5711 5711 5712 5713 5714 5715 5717 5719 5721 5723 5726 5728 5730 5732 5734 5736 5737 5738 5739 5740 5741 5742 5743 5744 5744 5745 5745 5745 5746 5745 5746 5746 5745 5745 5745 5744 5743 5743 5742 5741 5740
5713 5712 5710 5709 5708 5707 5707 5706 5708 5707 5708 5709 5710 5711 5712 5714 5716 5718 5719 5722 5724 5725 5727 5728 5729 5731 5732 5732 5733 5734 5734 5735 5735 5735 5736 5736 5736 5736 5736 5736 5736 5736 5735 5734 5733 5733 5731 5730 5729
5711 5710 5708 5706 5705 5705 5704 5703 5704 5704 5704 5705 5706 5706 5708 5709 5711 5712 5714 5715 5717 5719 5720 5721 5722 5723 5724 5724 5724 5725 5725 5726 5726 5726 5726 5726 5726 5727 5727 5727 5726 5726 5725 5724 5723 5722 5721 5720 5718
5709 5708 5706 5704 5703 5702 5701 5700 5700 5700 5700 5700 5701 5702 5703 5704 5706 5707 5708 5710 5711 5712 5713 5714 5715 5715 5716 5716 5716 5716 5716 5716 5716 5716 5717 5717 5717 5717 5717 5717 5716 5716 5715 5713 5712 5711 5710 5708 5707
5706 5705 5704 5702 5700 5699 5697 5696 5697 5696 5695 5695 5696 5697 5698 5699 5700 5701 5702 5704 5705 5706 5706 5707 5707 5707 5707 5708 5707 5707 5707 5707 5707 5707 5707 5707 5707 5707 5707 5707 5706 5705 5704 5703 5702 5700 5699 5697 5696
5703 5701 5700 5698 5696 5695 5693 5693 5692 5691 5691 5691 5692 5693 5693 5694 5695 5696 5697 5697 5698 5699 5699 5699 5700 5699 5699 5699 5699 5699 5698 5698 5698 5698 5697 5697 5697 5697 5696 5696 5695 5694 5693 5692 5690 5689 5687 5686 5684
5700 5698 5696 5694 5691 5690 5689 5689 5688 5687 5686 5687 5687 5687 5688 5688 5689 5690 5690 5691 5691 5692 5692 5692 5692 5691 5691 5691 5690 5690 5689 5689 5688 5688 5687 5687 5686 5686 5685 5685 5684 5683 5682 5680 5678 5677 5675 5674 5672
5695 5694 5691 5689 5687 5686 5684 5687 5683 5682 5681 5681 5681 5681 5681 5682 5682 5683 5683 5683 5684 5684 5684 5683 5683 5683 5682 5682 5682 5681 5681 5680 5679 5678 5677 5677 5676 5675 5674 5674 5673 5671 5670 5668 5666 5665 5663 5661 5660
5690 5688 5686 5685 5683 5681 5679 5682 5678 5676 5675 5675 5675 5675 5675 5675 5675 5675 5675 5675 5675 5675 5675 5675 5674 5674 5674 5673 5673 5672 5671 5670 5670 5669 5667 5666 5665 5664 5663 5662 5661 5659 5658 5656 5654 5652 5650 5649 5647